Wind_Speed
6 8 8 7 7 5 5 6 7 6 6 6 5 4 4 4 5 4 4 5 5 5 3 3 4 4 4 5 10 9 5 5 5 7 9 7 5 5 5 6 6 6 4 2 3 4 5 8 10 11 11 11 11 11 11 11 11 11 11 11 10 10 10 11 11 10 10 9 9 9 9 8 7 7 6 6 5 6 6 6 6 6 5 5 4
10 11 11 11 9 6 6 7 8 7 6 5 4 5 5 4 4 5 4 4 3 1 3 6 7 6 5 4 9 9 7 6 4 7 10 6 4 6 6 5 5 6 5 1 4 4 6 8 10 11 12 12 12 11 11 11 11 12 12 12 11 11 10 11 11 11 10 10 10 9 9 9 8 7 7 6 6 6 6 6 6 6 6 6 5
13 13 12 12 10 8 8 9 8 6 6 5 5 6 5 5 4 4 3 3 4 4 4 5 6 6 4 3 7 6 5 3 2 6 7 3 3 5 4 3 4 5 5 1 3 5 7 8 9 11 12 12 11 10 11 11 11 11 11 12 12 11 11 11 11 11 11 10 10 10 10 10 9 8 8 7 6 6 7 7 7 7 6 6 6
13 12 11 10 9 9 9 8 6 5 5 5 5 6 6 6 4 2 4 6 6 4 4 5 4 3 2 1 2 0 2 3 3 2 3 2 1 2 3 2 4 5 4 1 3 5 6 8 9 9 10 10 11 11 11 12 12 11 11 12 12 12 12 12 12 11 11 11 11 11 11 11 10 10 9 8 8 7 7 7 7 7 7 7 7
12 11 10 9 8 9 8 6 5 4 5 5 6 6 5 5 3 2 6 6 5 3 4 4 3 3 3 5 5 5 5 6 6 2 0 1 1 1 2 4 4 3 3 2 2 4 5 7 8 8 7 8 10 11 11 12 13 13 12 11 11 11 12 12 13 12 12 12 11 11 11 11 11 11 11 11 10 9 9 8 8 8 8 8 7
11 11 10 10 9 9 8 6 5 5 6 6 6 6 4 3 1 4 6 4 3 4 3 2 2 2 1 3 4 7 6 5 6 6 5 4 3 4 6 5 4 3 2 2 1 4 4 5 7 7 6 7 8 9 10 11 13 14 13 12 12 11 11 12 13 13 13 12 12 11 11 11 11 11 11 11 11 11 11 10 10 10 9 9 8
11 11 10 10 10 8 7 6 6 6 6 6 7 5 1 2 3 5 4 1 2 3 2 1 2 1 2 5 3 4 4 3 5 4 3 5 4 5 6 5 2 3 5 3 1 2 3 4 6 7 6 6 7 7 8 10 11 14 15 14 13 12 12 12 13 13 13 12 12 12 12 11 11 11 11 11 11 12 12 12 12 12 11 10 10
10 10 10 10 9 8 7 7 6 7 6 6 5 1 3 5 4 4 1 0 5 6 4 4 5 3 1 4 3 4 3 0 3 2 1 2 2 2 3 2 1 5 6 4 3 2 1 3 5 6 6 6 6 5 6 8 11 12 14 15 15 14 13 13 13 13 13 13 13 13 13 12 12 12 11 11 10 11 11 12 12 13 12 12 12
8 8 9 10 9 8 7 7 6 7 6 4 0 4 5 5 4 3 1 1 7 7 5 7 7 4 2 2 1 4 5 2 3 2 2 3 3 2 1 1 3 3 4 4 3 1 1 2 4 4 6 6 6 5 5 7 9 11 13 15 16 16 15 15 14 14 13 13 13 13 13 14 14 13 13 12 12 12 11 11 11 11 12 12 12
8 7 7 9 10 9 7 6 5 5 2 2 5 6 5 4 4 5 4 3 5 6 5 7 6 6 4 2 1 4 5 2 2 4 4 5 3 3 4 3 4 3 2 5 4 2 1 2 3 3 4 5 6 6 6 6 7 10 13 14 15 16 16 16 15 15 15 15 15 14 14 14 14 14 14 14 14 14 13 13 12 12 11 12 12
9 7 7 9 10 9 6 5 5 3 5 6 5 5 5 5 7 9 6 3 5 3 2 4 4 4 5 4 3 3 2 3 5 6 4 1 1 4 5 4 5 3 2 2 2 1 1 2 3 3 3 3 3 5 6 6 7 9 11 12 13 14 15 15 15 15 16 16 16 16 16 16 16 15 15 15 15 15 15 15 15 14 14 14 14
9 9 8 10 10 8 7 6 5 5 7 7 5 4 5 7 9 8 3 3 5 3 1 1 3 3 4 5 3 1 3 5 7 8 6 5 4 4 6 5 5 3 1 2 2 2 2 0 2 2 2 2 3 3 4 5 6 7 9 10 10 11 12 13 13 14 14 15 16 16 16 17 17 17 17 17 17 17 17 17 17 17 17 16 16
9 9 10 11 10 8 8 7 6 7 8 6 5 4 6 8 9 6 4 6 5 4 3 3 4 4 5 5 4 3 4 4 4 3 5 8 8 6 5 4 4 4 3 3 2 2 3 3 3 3 2 3 3 3 3 4 5 7 8 8 9 9 9 10 11 12 13 13 14 14 15 16 16 17 17 17 18 18 18 18 18 18 18 18 18
9 10 11 11 10 9 8 8 7 8 8 6 5 5 6 8 8 6 7 7 4 4 4 4 3 2 4 5 6 6 4 3 3 1 6 12 12 8 5 4 4 3 2 1 2 1 2 2 2 3 3 3 3 3 2 3 3 4 5 6 7 8 8 8 8 9 11 11 12 12 13 13 14 15 16 16 17 17 18 18 19 19 19 19 19
10 12 12 10 10 9 8 9 9 8 7 6 5 4 3 4 5 6 9 8 6 6 5 3 3 2 4 6 7 7 4 4 7 8 12 15 13 8 5 4 4 1 2 3 3 3 2 1 1 2 2 1 2 2 3 3 3 2 2 3 5 6 6 6 7 8 9 9 10 11 11 12 13 13 14 15 15 16 17 17 18 18 19 19 20
12 12 12 10 10 9 9 10 9 6 7 7 5 3 3 5 5 7 11 9 7 7 5 3 2 3 5 7 7 6 6 7 11 14 13 10 7 4 6 7 5 1 3 3 3 3 2 2 2 3 2 1 1 1 1 2 1 1 2 3 3 4 4 5 6 7 8 8 9 9 10 11 12 12 13 14 14 15 16 17 17 17 18 18 18
11 11 11 10 9 9 10 10 8 6 7 7 5 4 4 6 5 6 11 10 7 9 6 3 2 2 4 8 8 6 5 6 9 11 8 4 2 3 7 7 5 3 3 2 0 1 2 3 3 3 3 2 1 1 1 1 1 1 2 2 2 3 4 6 7 8 8 8 9 10 10 11 11 12 12 13 13 14 15 15 16 17 17 18 18
11 11 12 11 10 10 11 10 7 6 6 7 6 4 4 6 6 6 11 11 9 10 9 4 3 3 4 7 8 7 6 6 7 8 7 5 2 1 4 4 3 3 3 2 2 2 3 3 4 4 5 4 2 1 0 1 1 1 2 2 2 3 4 5 6 7 8 8 8 9 10 11 11 12 13 13 14 15 15 15 15 16 16 17 17
11 12 13 12 11 12 12 10 7 6 5 5 5 4 7 8 6 5 11 13 11 12 11 7 6 7 7 7 8 7 7 6 7 7 6 4 2 0 1 2 1 3 3 3 1 2 4 5 6 7 8 8 7 6 5 3 1 1 2 2 3 4 4 5 5 6 7 8 8 9 9 9 10 10 11 11 13 14 15 16 16 17 17 17 17
13 14 14 13 13 14 13 10 8 7 5 5 5 7 11 11 7 5 10 15 14 12 11 9 9 9 8 8 7 7 7 7 8 8 7 6 5 3 1 4 2 3 6 6 2 2 3 5 6 7 9 10 10 9 8 7 6 5 5 4 5 6 6 6 6 6 7 8 9 10 10 10 10 10 10 10 10 11 12 13 15 16 17 18 18
15 16 15 14 14 15 14 11 9 9 7 5 7 10 12 11 9 6 8 14 16 14 12 10 9 9 8 7 6 7 8 6 6 7 7 6 6 5 2 4 5 5 7 9 5 3 4 6 6 7 9 9 8 9 11 12 11 9 6 6 7 7 7 7 8 8 8 8 9 10 10 11 11 12 12 12 12 11 11 11 12 12 14 15 17
16 16 16 14 15 15 13 11 11 10 7 6 9 11 10 9 9 7 7 12 15 15 14 11 10 8 7 7 7 7 8 7 6 7 6 6 7 5 1 3 8 8 8 9 7 6 7 9 9 9 9 8 7 11 14 14 14 13 11 11 10 10 9 8 8 9 9 10 10 10 11 11 12 12 13 13 13 13 13 13 13 13 12 13 14
16 17 17 15 15 14 12 12 12 10 8 9 11 10 9 8 9 9 10 11 14 16 16 13 11 9 7 7 6 6 7 7 6 7 6 5 7 6 2 4 8 8 7 7 6 7 9 10 11 9 8 7 9 12 14 14 15 15 15 14 14 14 12 10 9 10 10 11 11 11 11 11 12 13 13 13 14 14 14 14 15 15 14 14 14
18 18 18 17 15 13 12 13 14 11 9 11 11 9 9 10 9 9 10 12 14 15 15 13 12 10 8 7 7 5 4 4 5 6 5 5 7 7 6 5 6 5 6 6 7 9 9 10 9 8 7 7 9 11 13 14 15 17 17 16 15 14 12 12 11 12 12 13 14 13 12 12 12 12 12 13 14 14 15 15 15 16 16 16 16
22 21 19 18 15 14 15 16 15 12 10 11 10 9 12 13 10 9 11 12 12 13 14 13 12 10 10 10 9 6 5 5 7 7 6 7 9 8 7 7 8 6 6 6 8 9 9 9 8 7 8 8 9 11 12 13 15 16 17 16 14 13 12 12 12 13 14 15 15 15 14 13 13 13 13 13 14 14 15 16 17 17 17 17 17
23 22 20 18 16 15 17 17 16 13 11 12 11 11 13 13 11 9 11 13 12 13 13 12 12 12 14 13 11 9 8 8 9 9 8 8 9 9 8 8 9 8 8 8 10 11 11 11 9 8 9 9 10 12 13 13 15 15 16 15 15 16 15 15 15 14 14 15 16 15 14 14 14 15 16 16 16 16 16 17 18 18 19 19 18
22 21 20 20 18 17 18 18 18 16 13 13 14 14 14 13 11 10 12 14 14 14 14 14 14 14 15 16 15 13 11 10 10 10 11 10 9 11 10 9 10 11 12 12 13 14 12 11 9 7 7 8 10 12 13 14 15 16 17 18 18 18 17 18 17 17 16 16 16 16 16 16 16 16 17 19 19 19 19 19 18 19 19 20 21
21 21 21 21 20 19 19 18 18 17 14 14 16 17 16 15 13 13 13 15 15 15 15 16 16 15 16 18 18 18 16 13 12 12 13 13 12 13 13 11 11 11 12 13 13 12 10 9 9 7 7 8 10 11 13 15 17 18 20 20 19 19 19 19 19 19 19 18 19 19 19 19 18 17 18 19 20 21 22 21 20 19 19 20 21
22 22 22 23 22 21 20 19 18 18 15 15 17 18 17 16 16 15 14 15 16 15 15 16 16 16 16 17 18 21 20 19 17 14 15 15 13 13 14 14 13 12 12 12 11 10 8 8 9 9 8 9 10 11 13 16 18 20 21 21 20 19 19 19 19 19 19 19 19 20 20 21 21 20 19 19 19 20 21 22 21 20 20 20 20
23 23 23 24 23 23 22 20 20 19 16 16 19 18 18 18 18 17 16 17 17 16 15 16 16 17 16 15 17 20 21 21 20 17 17 17 15 14 13 14 14 12 12 12 11 10 8 7 8 8 8 8 10 13 16 18 20 21 22 22 22 21 20 20 19 19 19 20 20 21 22 23 23 22 21 19 18 18 19 20 20 21 21 21 21
25 25 26 26 26 25 24 23 22 22 19 19 19 18 18 20 20 19 19 20 19 16 16 16 17 17 18 17 17 18 19 21 21 20 19 19 17 14 13 13 12 12 11 11 13 11 8 8 8 8 9 10 11 15 17 19 20 21 21 21 21 21 21 21 21 20 20 20 21 22 23 24 23 22 22 21 20 19 19 19 20 21 21 22 22
28 27 28 28 28 27 27 26 25 24 23 22 21 19 18 19 21 21 21 22 21 19 17 17 18 18 18 18 17 17 18 19 20 19 18 16 14 12 11 10 10 10 10 11 14 13 9 10 10 10 10 11 13 14 16 17 18 19 20 20 20 22 23 24 22 21 21 20 21 21 22 23 23 23 23 22 21 21 21 20 20 20 21 22 24
30 30 30 30 30 29 28 28 27 26 25 24 22 21 20 20 21 21 21 22 22 21 19 19 19 19 19 18 18 17 18 18 18 17 15 14 14 12 10 10 9 9 9 11 13 14 11 10 12 12 12 12 13 13 14 15 16 17 18 20 21 22 24 24 24 23 22 22 21 21 22 23 24 24 23 22 21 20 20 19 19 19 20 20 21
33 32 32 32 32 31 30 30 29 27 26 25 24 23 23 22 22 22 22 23 24 23 22 21 21 20 19 19 19 20 19 18 17 17 16 16 16 13 11 11 10 10 10 11 12 14 14 14 14 14 13 13 14 13 14 15 16 17 18 19 20 21 22 23 23 23 23 22 22 22 22 22 22 23 22 21 20 19 18 19 20 21 21 20 20
35 34 34 33 33 33 32 32 31 30 29 27 26 25 25 25 24 24 23 23 25 24 22 22 21 21 20 20 20 21 21 19 17 17 17 16 15 14 12 12 12 11 12 13 13 15 17 17 17 15 14 14 16 16 17 17 17 16 17 19 20 21 22 22 22 23 23 23 24 24 24 23 21 21 22 21 20 19 20 22 23 23 23 23 22
36 36 35 35 34 34 34 34 33 33 32 31 29 27 27 26 26 26 24 24 25 25 24 22 22 22 22 21 21 21 20 19 18 17 17 16 15 14 13 12 13 12 12 12 13 15 16 18 18 16 16 17 19 19 19 20 19 18 18 19 20 20 21 21 22 23 23 23 23 24 25 23 22 22 22 21 21 22 23 24 24 25 25 25 25
37 37 37 36 36 36 36 36 36 35 35 34 32 30 29 28 28 28 26 24 25 26 25 24 23 23 22 21 21 20 19 19 18 18 17 16 14 14 14 13 12 12 11 11 13 14 16 18 19 19 20 21 22 22 21 21 21 21 21 20 19 18 18 19 20 21 21 22 21 22 22 22 22 23 23 23 24 25 25 25 26 26 26 26 26
39 39 38 38 38 38 38 38 37 37 37 36 35 33 30 29 29 30 28 26 25 27 27 26 24 24 23 22 21 20 20 20 19 18 17 15 14 15 15 14 12 12 12 13 14 16 18 19 20 21 23 24 25 24 23 23 23 24 24 23 20 17 16 17 18 19 19 20 20 20 21 22 22 23 24 25 26 26 26 26 27 27 27 27 28
40 40 39 40 40 40 39 39 39 38 38 38 37 35 31 30 30 31 30 28 27 28 29 27 26 25 23 22 22 22 21 21 19 18 16 15 15 16 16 15 14 14 14 14 16 18 20 20 22 24 24 25 26 26 24 24 24 25 24 22 21 20 19 18 19 19 19 20 21 20 20 21 22 23 25 26 26 27 27 27 28 29 30 31 31
40 40 40 39 39 39 40 39 39 39 39 39 39 37 33 32 32 32 30 29 29 30 30 29 27 26 24 23 23 22 22 20 19 18 17 16 16 17 18 18 17 16 16 16 18 20 21 22 24 25 26 27 27 25 25 25 25 25 22 21 22 23 21 21 21 22 22 22 23 23 23 23 24 26 27 27 28 28 28 28 30 31 33 33 34
39 39 39 39 39 39 39 39 39 39 40 40 40 38 35 34 34 33 31 30 30 30 31 30 29 26 25 24 23 22 21 20 18 17 17 18 18 18 19 20 19 18 17 18 19 21 22 24 26 26 27 28 27 25 25 25 25 24 22 21 22 23 23 24 25 24 24 26 27 27 27 27 27 29 29 30 32 32 32 32 33 34 33 32 32
38 38 38 38 39 39 39 39 39 39 40 41 41 38 36 35 35 34 32 31 31 31 31 32 31 27 25 25 24 22 22 21 19 18 18 19 17 16 18 19 20 19 19 19 20 22 24 26 27 27 28 28 26 25 25 24 23 22 21 21 22 23 24 26 26 25 26 29 30 30 30 30 31 33 33 33 34 34 34 33 30 28 27 25 25
38 37 37 37 38 38 38 37 37 38 39 40 39 37 35 36 37 37 34 32 32 32 33 33 32 28 26 26 25 23 23 23 21 21 21 20 18 16 18 20 20 20 20 21 23 24 26 27 28 27 28 28 26 25 24 22 21 21 21 21 23 24 25 26 28 28 28 30 32 33 33 33 33 33 32 31 30 28 26 24 22 21 21 22 22
37 37 37 37 37 36 35 35 35 35 37 39 38 35 32 34 37 39 36 33 32 34 34 33 32 29 26 26 24 23 24 24 23 24 22 20 19 18 20 22 22 22 23 24 25 26 27 28 27 27 28 28 27 25 22 21 21 22 22 23 24 25 25 26 29 32 31 31 31 32 33 31 28 28 28 26 22 20 18 19 20 21 22 24 25
38 37 37 36 36 35 35 34 33 33 35 36 35 31 29 29 33 37 37 35 33 34 34 33 32 29 27 25 23 23 23 24 24 24 23 21 20 21 23 25 24 23 24 25 26 27 27 26 26 27 27 26 25 24 21 20 22 22 23 24 24 25 27 29 31 33 30 27 27 29 30 28 25 27 28 25 21 19 20 21 23 25 26 26 26
38 37 36 35 34 34 34 34 32 32 33 33 31 28 25 25 30 34 35 35 34 34 34 32 31 29 27 24 21 21 23 23 23 23 23 22 22 23 25 25 24 24 24 25 26 26 26 25 26 27 25 23 23 23 20 19 21 22 23 24 25 26 29 30 29 27 25 23 23 27 31 29 28 29 30 27 23 22 24 26 27 27 27 27 28
36 35 34 32 32 33 34 34 33 33 33 31 28 26 24 24 27 31 33 35 35 35 34 31 30 29 26 23 20 21 23 23 22 22 23 23 22 23 24 24 24 24 25 25 27 27 27 27 26 25 23 21 21 21 19 19 22 23 23 24 27 28 29 26 24 24 24 23 23 27 31 31 30 31 31 27 23 23 26 28 29 29 31 33 35
35 33 32 30 30 31 32 33 33 32 31 29 28 27 27 25 26 28 31 34 36 35 33 30 30 29 26 22 20 22 23 23 21 21 22 23 22 23 23 24 24 25 25 26 27 27 26 25 23 21 20 19 19 20 21 22 22 23 24 26 27 26 25 25 26 27 27 25 24 25 30 32 30 31 30 26 23 26 28 30 33 35 37 36 34
35 34 33 31 30 30 31 33 33 32 31 29 27 28 28 26 25 26 30 32 34 34 32 30 29 27 26 24 21 22 23 22 21 21 21 21 22 24 25 25 25 26 26 26 26 26 25 23 21 20 20 20 21 22 22 23 23 23 24 24 22 20 23 26 29 29 27 26 25 26 29 32 30 29 29 28 29 31 35 38 39 36 32 28 25
35 34 33 32 31 31 31 32 32 31 30 28 28 28 28 27 25 26 28 30 33 33 32 30 29 26 27 26 23 22 23 22 22 21 20 21 22 24 26 27 27 27 27 26 26 25 24 22 21 21 22 22 23 23 23 23 22 20 19 18 18 19 23 26 27 27 26 26 26 25 26 28 27 28 32 36 38 39 40 39 34 28 24 22 21
32 32 32 32 31 30 30 30 30 29 29 28 27 28 27 27 25 25 25 27 31 34 33 31 29 27 27 24 21 21 21 21 21 21 21 21 22 24 25 27 27 27 27 27 25 23 22 22 22 22 23 24 24 25 24 23 18 14 14 17 18 19 20 21 21 23 26 27 25 22 24 28 30 33 35 36 39 40 37 30 25 22 21 22 24
Wind_Direction
205 226 246 252 256 260 272 286 296 304 296 288 300 327 325 301 301 304 297 291 296 307 334 33 46 41 5 347 2 13 57 54 2 345 345 357 31 32 14 12 5 1 349 260 227 218 208 204 206 209 211 210 208 205 197 191 195 199 201 203 203 201 198 197 196 198 199 200 203 204 204 206 208 210 211 210 206 202 200 196 198 203 204 213 225
214 225 242 251 255 260 269 279 288 293 295 299 311 320 308 290 297 310 306 302 317 360 56 60 63 30 334 328 1 20 44 28 353 324 322 327 8 24 18 6 354 354 354 275 218 221 215 208 208 208 213 216 216 213 207 202 201 202 203 204 208 210 208 205 203 203 203 202 203 205 206 210 212 215 217 215 214 212 211 211 210 215 218 221 230
211 224 235 246 255 261 273 282 286 286 298 310 314 313 302 290 295 319 353 63 64 86 69 43 58 27 7 30 359 12 46 28 360 334 328 322 337 14 32 5 345 349 355 315 206 211 213 210 210 209 214 219 221 218 214 216 214 210 207 205 208 214 218 216 212 210 209 209 208 208 208 210 213 217 220 221 222 221 220 222 223 226 230 232 234
216 227 232 244 254 259 270 282 290 288 298 304 299 301 303 303 302 342 74 93 87 85 34 19 44 6 4 105 307 324 123 235 241 329 13 59 51 49 46 344 340 350 4 5 207 209 212 208 210 213 211 216 222 220 216 219 221 219 214 209 208 214 221 223 221 218 217 218 217 217 217 216 217 217 219 223 227 232 233 233 235 237 240 244 247
232 236 242 252 256 259 265 275 289 282 287 292 290 299 310 316 313 90 103 113 98 59 19 28 26 331 269 226 232 226 229 243 232 208 115 26 82 125 320 310 311 328 1 360 235 210 211 205 206 209 205 209 217 217 215 217 220 221 219 214 211 213 221 226 225 223 222 224 225 224 225 225 225 224 223 224 226 231 236 240 243 245 248 251 254
241 242 248 255 253 257 259 267 277 273 285 301 308 309 308 332 31 136 130 125 81 50 45 57 348 339 299 275 258 240 241 250 241 231 238 252 270 279 285 292 291 311 350 345 263 204 210 201 195 198 199 204 211 213 215 215 217 221 222 219 217 215 220 227 228 225 225 226 229 229 230 231 232 232 232 231 230 230 232 237 242 245 249 251 254
243 242 244 249 254 260 262 272 279 281 297 317 321 316 300 105 131 163 151 72 83 102 105 139 265 286 353 340 329 268 266 262 236 217 230 237 246 260 265 279 301 55 57 63 107 168 203 202 193 193 194 197 202 207 209 214 218 220 222 221 220 220 220 225 228 228 229 229 232 234 234 235 237 238 239 239 239 237 236 236 238 242 246 248 250
235 236 239 244 256 267 269 276 282 289 305 317 318 331 137 132 141 171 152 49 168 161 156 195 224 210 351 342 345 334 334 110 149 151 232 239 243 246 245 276 113 92 80 97 125 113 163 222 206 193 196 201 199 200 202 211 220 221 222 223 222 224 224 226 228 229 231 231 234 236 237 238 239 241 242 243 246 246 244 241 241 243 246 248 249
228 236 239 239 250 260 264 273 287 297 302 309 25 138 155 155 145 177 241 246 183 185 195 211 228 206 143 44 327 305 327 25 101 135 130 79 42 28 104 160 167 146 103 119 157 142 31 241 222 206 203 210 209 207 202 207 219 223 224 225 224 226 228 230 231 231 234 235 237 238 240 241 242 242 242 243 245 248 249 248 247 246 247 250 251
225 237 238 234 243 250 256 268 287 296 270 155 143 155 166 156 168 218 266 287 196 198 212 217 234 218 181 105 204 286 305 285 123 119 107 73 45 58 87 125 163 195 143 120 140 168 282 236 226 229 217 218 219 212 205 203 214 221 222 225 227 228 231 234 236 238 240 242 242 242 242 242 243 244 244 245 245 247 249 250 251 251 250 250 252
226 238 238 230 236 245 251 256 268 251 175 164 173 188 181 179 219 243 271 262 185 172 225 221 222 217 193 180 221 302 315 192 148 128 136 137 74 90 85 105 141 189 205 123 117 126 296 244 219 223 212 210 216 211 205 202 209 216 219 223 230 234 236 238 241 243 246 248 248 248 246 244 245 247 249 250 250 251 252 253 254 254 254 253 253
231 241 236 229 235 243 244 244 246 203 179 195 222 223 207 207 232 252 253 178 158 149 216 174 151 162 151 156 182 43 70 144 142 139 167 199 192 119 93 95 110 123 100 66 91 94 64 156 200 205 191 173 181 197 198 198 204 212 219 223 229 236 239 242 245 247 249 252 251 251 250 249 249 250 250 251 251 252 254 255 257 259 259 259 258
233 237 233 231 237 238 235 236 222 188 191 223 246 235 225 224 233 240 182 156 160 185 188 133 145 169 153 143 161 130 87 109 127 156 200 194 180 144 105 86 80 87 79 63 87 92 82 108 142 148 136 130 146 172 188 200 204 209 218 225 230 235 239 244 248 249 251 251 251 250 250 251 252 253 254 253 253 253 254 256 258 260 262 262 263
230 232 234 235 234 227 222 220 205 200 213 237 244 230 227 230 229 204 162 147 153 177 166 167 197 178 143 142 156 155 126 105 58 354 198 178 168 153 116 87 68 86 107 360 301 323 55 88 119 132 124 119 126 133 144 166 181 194 211 224 237 241 241 244 248 252 255 253 254 254 252 252 254 256 257 257 257 257 256 257 258 258 260 261 262
225 233 236 229 223 220 213 209 208 216 228 234 236 236 235 224 208 176 165 153 144 142 123 162 216 199 142 127 143 163 151 121 85 103 150 158 157 147 96 57 38 93 217 268 287 312 357 29 141 153 147 156 150 119 117 134 143 154 183 215 240 248 246 244 245 253 259 258 258 259 258 257 258 259 260 259 259 259 259 259 260 260 260 260 261
229 234 231 215 212 217 210 207 215 223 220 222 229 234 222 191 174 165 168 170 166 154 119 83 142 189 165 117 124 146 128 118 105 110 130 135 132 97 46 27 25 105 221 248 276 309 345 45 95 120 119 158 177 141 143 145 142 156 185 208 228 248 261 263 260 261 265 266 265 263 261 260 262 263 262 262 261 261 262 261 262 262 261 261 261
231 231 224 215 215 217 207 206 218 214 201 211 215 216 205 178 172 175 177 185 186 165 147 101 104 170 166 137 136 130 115 129 121 116 120 115 116 32 24 25 44 106 171 187 180 8 37 50 59 66 69 88 100 98 160 189 226 218 221 230 237 250 266 274 278 281 281 281 277 274 271 267 266 265 264 265 264 264 264 264 264 264 263 262 261
226 223 218 216 216 211 205 207 212 202 198 211 212 211 200 178 179 191 182 180 175 163 155 140 133 130 139 156 159 141 135 163 149 127 122 121 146 348 22 31 47 84 121 120 76 43 29 11 10 17 19 17 12 20 330 234 193 219 256 264 268 268 270 272 277 284 290 295 294 289 285 281 277 274 270 268 268 267 267 266 266 265 264 263 262
219 217 213 212 210 205 208 213 209 207 208 208 204 186 186 191 194 191 179 173 165 164 164 159 157 146 136 154 167 154 149 175 181 161 150 152 167 195 356 315 8 76 120 146 108 2 354 349 351 353 350 343 336 334 328 318 343 350 327 326 319 305 296 287 280 278 281 288 294 297 296 296 294 290 286 281 277 275 273 271 269 268 267 266 265
218 216 212 209 205 203 211 215 208 216 210 189 197 184 184 198 203 184 178 180 178 177 178 175 167 157 150 155 165 165 156 167 183 179 174 177 175 170 265 283 280 110 142 158 147 338 333 341 343 337 332 332 326 320 325 332 344 351 345 340 334 324 316 309 306 301 294 291 291 292 294 296 297 298 299 297 293 288 283 280 277 274 271 269 268
214 215 214 209 204 205 212 215 209 220 221 205 217 207 195 202 209 202 190 190 192 193 194 192 184 172 166 172 179 176 163 156 170 176 177 179 176 177 213 247 211 154 162 184 207 282 315 327 328 320 316 320 309 304 318 328 335 344 342 333 330 323 317 313 314 312 308 306 302 299 297 295 293 292 292 293 295 295 294 292 289 285 281 276 273
212 215 216 210 206 205 208 212 215 227 235 226 223 216 204 210 227 239 220 196 193 196 199 201 201 185 172 186 191 183 172 160 159 158 164 177 178 179 187 200 189 174 185 210 238 287 316 322 322 317 307 300 288 299 315 324 331 338 338 334 331 326 320 314 313 312 309 308 306 304 301 299 297 295 293 292 292 292 292 293 293 293 291 288 284
215 214 216 213 208 203 200 206 217 228 236 230 224 213 201 212 232 233 215 194 186 193 200 202 205 198 183 180 174 178 182 179 178 161 155 178 187 199 220 173 173 177 198 226 264 294 308 315 320 318 304 291 287 298 311 319 327 333 333 332 330 328 325 321 318 315 313 312 309 306 302 299 298 298 298 297 296 294 292 291 291 290 290 290 289
216 215 216 217 211 200 194 202 215 224 229 230 225 209 203 210 218 214 203 194 186 190 199 200 202 201 186 164 148 165 183 176 194 187 186 213 214 223 236 208 188 184 195 225 266 284 296 308 320 321 309 299 289 291 303 310 316 321 322 322 321 323 325 325 323 319 317 316 315 314 309 303 300 298 298 298 299 298 296 294 291 290 288 287 287
217 218 217 220 218 205 201 209 221 223 219 231 230 211 209 209 210 208 199 198 193 191 197 200 201 195 184 172 160 178 205 204 213 213 218 231 225 227 242 235 224 211 199 218 252 272 285 296 307 309 301 297 289 288 294 298 301 307 311 312 310 314 319 320 320 318 316 316 315 314 311 309 305 300 298 297 296 295 295 295 293 291 289 287 285
221 222 219 222 223 215 212 218 227 224 215 229 234 218 211 208 209 209 201 202 202 198 200 204 204 197 192 188 179 187 207 213 219 222 223 229 227 227 237 239 237 239 240 242 252 263 271 279 285 288 287 284 282 285 289 291 294 299 304 306 307 310 313 314 314 313 311 309 307 306 306 307 304 301 298 295 293 290 287 287 288 288 288 287 285
223 223 221 222 223 217 216 222 228 229 222 227 229 222 219 215 210 208 204 204 206 207 206 209 213 207 199 197 193 194 198 201 208 214 216 218 222 231 237 243 248 253 257 257 256 259 265 271 270 271 276 274 272 277 285 290 294 299 304 307 309 311 312 311 310 308 305 301 299 300 302 303 302 300 298 295 293 290 286 284 282 281 282 283 284
224 223 221 223 225 219 218 224 229 232 231 228 226 223 226 226 216 207 206 206 209 212 209 211 218 214 206 204 201 200 201 203 205 210 218 222 228 237 243 252 257 254 253 255 254 256 260 258 257 263 273 280 282 281 285 289 295 303 306 308 310 312 312 310 309 306 302 299 299 300 301 301 300 297 295 293 291 290 288 287 285 282 279 278 279
220 220 220 223 226 223 224 228 230 235 235 228 224 223 225 230 224 214 214 215 213 214 212 213 218 218 216 214 206 203 208 213 215 218 225 231 236 242 245 250 253 249 249 253 257 261 262 255 263 275 280 290 298 293 289 292 298 303 305 307 309 310 310 309 308 305 301 298 296 297 298 299 298 297 294 291 288 287 286 287 288 287 283 279 277
218 218 220 224 225 225 229 231 233 238 236 224 222 222 221 226 227 222 223 226 221 215 215 216 217 218 219 218 210 207 211 215 218 223 229 234 239 244 246 245 246 247 252 260 266 271 275 271 272 280 282 286 290 289 289 295 300 302 303 304 305 306 307 307 306 305 302 299 296 296 297 297 296 296 295 292 288 285 283 283 284 285 285 283 280
220 218 220 223 225 227 230 233 235 240 237 225 221 222 219 220 225 224 222 226 227 221 217 216 217 217 219 220 215 208 209 214 218 222 228 232 235 237 237 236 240 245 250 259 268 272 278 281 278 279 283 282 279 280 285 290 294 296 298 299 302 305 308 307 306 305 304 301 297 296 296 295 293 292 292 291 289 287 286 284 282 281 282 283 281
223 222 223 225 227 229 231 234 236 240 238 228 221 223 221 217 221 223 220 222 226 225 221 218 217 217 219 222 219 210 208 214 219 222 225 230 235 235 235 235 238 245 249 258 268 275 281 283 283 284 285 284 281 279 280 283 285 289 292 295 299 305 308 309 306 302 301 299 296 294 294 293 291 291 290 288 288 290 292 290 286 283 282 282 282
225 226 228 229 231 233 234 236 238 241 239 232 224 223 224 219 218 221 221 220 223 226 223 220 220 218 217 220 220 216 215 217 222 226 229 233 239 241 243 246 247 252 257 262 271 280 284 283 286 290 290 289 288 288 287 286 285 286 287 291 296 300 303 305 301 298 298 296 292 291 292 292 291 290 290 289 290 292 294 294 293 292 290 288 288
228 229 231 232 233 235 236 238 240 241 240 236 230 226 226 224 219 220 221 219 220 222 221 221 221 218 216 217 219 219 221 222 224 229 233 233 236 239 241 248 252 254 259 263 269 278 282 283 285 289 293 295 298 302 301 296 291 288 287 291 295 296 297 298 296 296 297 295 292 291 293 294 291 289 290 292 293 294 297 299 299 298 296 294 293
229 231 233 234 235 236 238 240 241 242 241 240 237 232 230 227 224 222 221 218 217 218 219 220 220 219 218 218 219 220 223 225 224 229 233 232 234 238 240 245 249 251 254 257 262 269 275 279 283 288 296 302 306 311 312 308 302 296 295 297 297 296 296 297 296 295 294 293 292 291 294 295 290 286 288 291 290 291 297 300 300 298 296 294 292
231 232 234 236 237 238 239 240 241 242 242 242 241 238 234 231 229 226 222 221 219 218 219 220 220 220 220 221 222 222 223 226 227 230 234 235 237 240 241 242 245 247 249 252 258 266 274 281 288 294 300 305 309 311 312 310 308 304 302 303 301 296 294 293 292 292 291 291 289 289 294 297 293 288 288 288 287 289 295 297 298 297 296 294 292
231 232 234 235 237 238 240 241 242 243 244 244 243 241 238 233 231 228 226 224 223 220 220 222 223 222 223 225 227 226 225 226 229 233 234 236 240 243 245 244 244 248 252 256 263 270 277 285 292 298 303 306 308 310 312 313 313 311 311 311 309 303 295 290 288 288 289 289 289 291 295 298 296 292 289 288 289 292 295 295 294 294 293 293 293
232 233 234 235 237 239 241 242 243 244 244 244 243 242 240 236 232 228 227 227 227 225 223 223 225 225 225 228 229 229 229 230 234 237 237 240 248 254 253 249 250 256 258 260 264 268 276 285 293 300 304 306 307 308 312 314 314 314 315 315 313 308 302 297 293 290 289 286 287 290 292 293 293 291 290 289 290 291 291 290 291 292 293 293 294
232 234 235 237 238 240 241 242 243 243 243 243 243 241 240 239 234 229 228 230 229 228 226 225 227 227 227 229 230 231 232 233 236 239 238 242 252 259 258 254 256 259 258 260 263 268 275 283 291 297 301 304 305 306 309 311 312 312 314 313 309 305 304 301 297 294 292 290 291 293 292 291 290 289 288 287 287 288 288 289 291 293 294 295 295
232 234 237 238 239 240 241 242 243 243 242 242 242 240 239 239 236 232 231 233 232 230 228 227 228 230 229 229 231 233 235 236 238 240 239 239 245 252 256 256 256 256 257 261 266 271 277 285 291 296 299 301 302 304 307 309 309 309 308 305 301 300 301 299 298 299 300 299 298 296 293 292 290 289 289 289 290 292 292 292 292 293 294 294 293
233 235 237 238 239 240 240 241 243 242 242 241 240 240 240 239 239 236 233 235 236 233 229 228 229 230 230 230 232 234 238 242 244 244 242 240 241 247 252 254 254 255 258 264 270 276 283 287 291 293 296 298 299 302 305 306 306 304 300 295 293 293 294 295 297 301 303 302 300 297 296 296 295 294 293 293 295 296 294 292 292 293 294 293 291
233 234 235 237 238 240 240 241 241 241 241 240 240 242 242 242 243 240 235 237 240 235 231 230 229 229 230 230 231 233 237 241 243 246 247 242 242 249 255 256 255 255 261 269 277 282 285 287 290 292 294 295 297 300 302 303 303 299 292 288 286 287 288 291 295 299 300 301 300 298 298 298 298 296 295 295 296 295 294 293 294 293 291 290 290
232 233 233 235 237 238 240 241 242 242 242 242 242 244 246 246 246 242 238 240 241 237 234 232 229 229 230 230 230 232 235 238 239 244 248 246 245 253 261 262 261 261 266 274 279 282 285 288 291 293 293 294 297 300 302 303 301 295 290 287 285 286 288 291 295 297 299 302 302 300 299 300 299 297 297 298 298 296 296 296 297 296 295 296 297
230 231 232 234 236 238 240 242 243 244 244 244 244 246 249 250 249 244 240 240 242 241 239 234 229 230 231 230 230 232 235 239 239 242 248 251 249 253 259 261 263 265 269 274 277 281 285 288 289 289 290 293 296 298 300 302 299 295 292 290 290 291 293 294 297 298 301 305 305 302 302 303 302 302 305 306 304 302 301 302 304 305 304 305 304
228 230 231 233 236 238 241 243 245 246 245 245 244 245 248 251 252 248 242 239 242 245 244 237 231 231 233 232 232 233 238 245 245 243 248 251 248 249 254 257 260 264 269 274 277 281 284 285 285 287 289 292 293 295 299 299 297 294 293 293 295 296 297 298 298 300 304 307 306 304 305 307 310 311 314 315 311 307 306 306 306 306 305 305 303
225 228 230 232 235 238 241 243 245 247 246 246 246 246 249 253 254 250 243 239 242 245 246 240 232 230 232 232 233 236 244 251 250 245 248 251 248 248 251 255 259 264 269 274 278 281 284 286 287 286 287 289 291 294 298 296 293 293 294 296 298 299 299 300 301 303 307 310 310 307 305 309 316 317 315 316 314 309 305 303 302 303 302 299 295
224 226 228 230 233 236 239 241 243 245 246 248 249 251 256 256 254 249 242 238 241 244 245 240 231 229 232 231 234 240 247 253 251 246 249 251 249 251 253 255 258 262 267 274 280 284 287 289 288 285 285 289 292 293 294 291 291 294 297 298 298 298 299 300 302 304 305 308 310 307 304 309 316 314 311 312 308 300 296 295 294 294 293 292 291
222 224 225 228 230 233 237 240 241 243 246 249 250 253 255 252 250 247 240 237 239 241 241 236 229 228 229 229 236 244 251 254 247 243 249 250 248 252 256 256 260 263 268 274 281 286 289 287 285 284 287 291 290 289 290 290 292 296 297 294 294 296 298 299 301 302 302 303 307 305 303 306 308 305 302 300 294 288 286 286 288 290 292 292 291
219 221 224 226 229 232 236 239 240 243 247 250 251 252 251 248 247 245 239 235 235 236 236 233 230 228 227 232 244 254 257 253 243 243 252 251 249 253 256 260 265 268 270 276 283 287 287 282 280 282 284 282 280 281 285 288 292 294 292 290 292 298 301 300 300 301 300 301 304 303 300 298 299 297 294 291 288 286 287 289 291 294 295 293 292
218 221 223 224 227 231 235 238 240 242 247 251 253 251 248 248 248 242 237 235 233 232 231 229 230 232 234 240 252 258 256 250 243 246 254 254 254 257 258 263 269 271 275 281 285 286 284 281 281 281 279 276 275 277 282 286 289 289 288 292 299 302 300 297 298 300 300 299 301 299 294 290 290 291 292 293 293 291 292 295 297 297 297 298 303
219 221 222 223 225 228 231 234 237 241 246 251 251 249 248 249 248 242 239 237 233 230 228 228 233 239 240 245 254 259 255 247 243 248 255 257 260 262 263 266 272 276 280 283 282 282 280 279 279 276 273 272 272 275 280 283 283 283 288 297 301 298 295 296 298 299 296 294 294 292 290 290 292 294 297 301 302 299 299 303 305 302 304 310 315
Height
1580 1581 1581 1582 1583 1583 1583 1584 1584 1584 1585 1585 1585 1584 1584 1584 1584 1584 1584 1584 1584 1584 1585 1584 1584 1584 1584 1584 1584 1584 1583 1583 1583 1582 1583 1583 1583 1584 1584 1584 1585 1585 1585 1585 1585 1585 1585 1584 1585 1585 1586 1586 1587 1588 1588 1589 1590 1591 1591 1592 1593 1594 1595 1596 1596 1597 1598 1598 1599 1600 1600 1601 1601 1602 1602 1602 1603 1603 1603 1604 1604 1605 1605 1606 1606
1580 1581 1581 1582 1582 1583 1583 1583 1583 1583 1584 1584 1584 1583 1583 1583 1583 1583 1583 1583 1583 1584 1584 1584 1584 1584 1584 1584 1584 1583 1583 1583 1583 1582 1582 1583 1583 1583 1584 1584 1584 1584 1584 1584 1584 1584 1584 1584 1584 1585 1585 1586 1587 1588 1589 1589 1589 1589 1590 1591 1592 1594 1595 1595 1596 1597 1598 1598 1599 1599 1600 1600 1601 1601 1601 1602 1602 1602 1603 1603 1604 1604 1605 1605 1605
1580 1581 1581 1581 1581 1582 1582 1582 1582 1583 1583 1582 1582 1582 1582 1583 1583 1583 1583 1582 1583 1583 1583 1583 1583 1583 1583 1583 1583 1583 1583 1583 1583 1582 1582 1582 1583 1583 1583 1584 1584 1584 1583 1583 1583 1583 1583 1583 1584 1584 1585 1586 1587 1587 1588 1589 1589 1589 1590 1590 1592 1593 1594 1595 1596 1597 1597 1598 1598 1598 1599 1599 1600 1600 1601 1601 1601 1602 1602 1602 1603 1603 1604 1604 1605
1579 1580 1580 1580 1581 1581 1581 1581 1581 1582 1582 1582 1582 1582 1582 1582 1582 1582 1582 1582 1582 1582 1583 1583 1583 1583 1583 1582 1582 1582 1582 1582 1582 1582 1581 1581 1582 1583 1583 1584 1584 1583 1583 1583 1583 1583 1583 1583 1583 1584 1585 1585 1586 1587 1587 1588 1588 1589 1590 1590 1591 1592 1593 1595 1595 1596 1597 1597 1597 1598 1598 1599 1599 1600 1600 1600 1601 1601 1601 1602 1602 1603 1603 1603 1603
1579 1579 1579 1580 1580 1581 1581 1581 1581 1581 1581 1581 1581 1581 1581 1581 1582 1582 1582 1582 1581 1582 1582 1582 1582 1582 1582 1582 1582 1582 1582 1582 1581 1582 1582 1581 1582 1582 1582 1583 1583 1583 1583 1583 1582 1582 1582 1582 1583 1583 1584 1585 1585 1586 1586 1587 1588 1588 1589 1590 1590 1591 1592 1593 1594 1595 1595 1596 1597 1597 1597 1598 1598 1599 1599 1599 1600 1600 1601 1601 1601 1602 1602 1602 1603
1578 1578 1578 1579 1579 1580 1580 1580 1580 1580 1580 1580 1580 1580 1580 1580 1581 1581 1581 1581 1581 1581 1581 1582 1582 1582 1582 1581 1581 1581 1581 1581 1581 1582 1582 1581 1581 1581 1582 1582 1582 1582 1582 1582 1582 1582 1582 1582 1582 1583 1583 1584 1584 1585 1585 1586 1587 1588 1589 1590 1590 1590 1591 1592 1593 1594 1594 1595 1595 1596 1596 1597 1597 1598 1598 1598 1599 1599 1599 1600 1600 1601 1601 1601 1602
1577 1577 1578 1578 1578 1578 1579 1579 1579 1579 1579 1579 1579 1579 1579 1579 1580 1581 1581 1580 1580 1580 1581 1581 1582 1581 1581 1581 1581 1580 1580 1580 1581 1581 1581 1581 1581 1581 1581 1581 1582 1582 1582 1582 1582 1582 1582 1582 1582 1583 1583 1583 1584 1584 1585 1585 1586 1586 1588 1589 1589 1589 1590 1591 1592 1592 1593 1593 1594 1595 1595 1596 1596 1596 1597 1597 1597 1598 1598 1598 1599 1599 1600 1600 1600
1576 1576 1577 1577 1577 1577 1578 1578 1578 1577 1578 1578 1578 1578 1578 1579 1579 1580 1580 1580 1579 1579 1579 1580 1580 1581 1581 1581 1580 1580 1580 1580 1580 1580 1581 1581 1581 1581 1581 1581 1581 1581 1581 1582 1582 1582 1582 1582 1582 1582 1583 1583 1583 1584 1584 1584 1585 1585 1586 1587 1587 1588 1589 1590 1590 1591 1591 1592 1593 1593 1594 1594 1595 1595 1595 1596 1596 1596 1597 1597 1597 1598 1598 1599 1599
1575 1575 1576 1576 1576 1576 1577 1577 1577 1577 1577 1577 1577 1577 1577 1578 1578 1578 1579 1579 1579 1578 1579 1579 1580 1580 1580 1580 1580 1580 1580 1580 1580 1580 1580 1581 1581 1581 1581 1581 1580 1580 1580 1581 1582 1582 1582 1582 1582 1582 1583 1583 1583 1583 1583 1584 1584 1584 1585 1586 1586 1587 1588 1588 1589 1589 1590 1591 1591 1592 1593 1593 1593 1594 1594 1594 1595 1595 1596 1596 1596 1596 1597 1597 1597
1574 1574 1574 1575 1575 1575 1576 1576 1576 1576 1576 1576 1576 1576 1576 1576 1577 1577 1578 1578 1578 1578 1578 1578 1579 1579 1579 1580 1580 1580 1580 1579 1579 1580 1580 1580 1580 1581 1581 1581 1580 1580 1580 1580 1581 1581 1581 1581 1581 1582 1582 1582 1582 1582 1583 1583 1583 1583 1584 1584 1585 1586 1586 1587 1587 1588 1588 1589 1590 1591 1591 1592 1592 1592 1593 1593 1593 1594 1594 1595 1595 1595 1595 1596 1596
1572 1573 1573 1574 1574 1574 1575 1575 1575 1575 1575 1575 1575 1575 1575 1575 1576 1576 1577 1577 1576 1577 1577 1577 1578 1578 1579 1579 1579 1579 1579 1579 1579 1579 1580 1580 1580 1581 1581 1581 1580 1580 1580 1580 1580 1581 1581 1581 1581 1581 1581 1581 1582 1582 1582 1582 1582 1582 1583 1583 1584 1585 1586 1586 1586 1587 1588 1588 1589 1589 1590 1590 1590 1591 1591 1592 1592 1592 1593 1593 1594 1594 1594 1594 1594
1571 1572 1572 1572 1572 1573 1574 1574 1574 1574 1574 1574 1574 1574 1574 1574 1575 1575 1575 1575 1575 1575 1576 1576 1577 1577 1578 1578 1578 1578 1578 1578 1579 1579 1580 1580 1581 1581 1581 1581 1581 1580 1580 1580 1580 1580 1580 1580 1580 1580 1581 1581 1581 1581 1581 1582 1582 1582 1582 1582 1583 1584 1584 1585 1585 1586 1587 1587 1588 1588 1588 1588 1589 1589 1589 1590 1590 1591 1591 1592 1592 1592 1592 1593 1593
1570 1570 1571 1571 1571 1572 1572 1572 1573 1573 1573 1573 1573 1573 1573 1573 1573 1574 1574 1574 1575 1575 1575 1576 1576 1577 1577 1577 1577 1577 1578 1578 1579 1579 1579 1580 1581 1581 1580 1580 1580 1580 1580 1580 1580 1580 1580 1580 1580 1580 1580 1580 1581 1581 1581 1581 1581 1581 1581 1581 1582 1583 1583 1584 1584 1585 1585 1585 1586 1586 1586 1587 1587 1587 1587 1587 1588 1588 1589 1589 1590 1590 1591 1591 1591
1569 1569 1569 1570 1570 1571 1571 1571 1571 1572 1572 1572 1572 1572 1572 1572 1571 1572 1573 1574 1574 1575 1575 1576 1576 1576 1576 1576 1576 1577 1578 1578 1579 1578 1578 1579 1581 1580 1580 1580 1580 1579 1579 1579 1579 1580 1580 1580 1580 1580 1580 1580 1580 1581 1581 1581 1581 1581 1581 1581 1581 1582 1582 1583 1583 1583 1584 1584 1584 1584 1585 1585 1585 1585 1586 1586 1586 1586 1587 1587 1587 1588 1588 1589 1589
1567 1568 1568 1569 1569 1569 1570 1570 1570 1571 1570 1570 1570 1570 1570 1570 1571 1571 1572 1573 1573 1574 1575 1575 1575 1576 1576 1576 1576 1577 1577 1578 1579 1577 1577 1579 1581 1581 1580 1580 1580 1579 1579 1578 1578 1579 1579 1580 1580 1580 1580 1580 1580 1580 1580 1580 1581 1581 1580 1581 1581 1581 1581 1582 1582 1582 1583 1583 1583 1583 1583 1584 1584 1584 1584 1584 1584 1584 1585 1585 1585 1586 1586 1586 1587
1565 1566 1567 1567 1568 1568 1569 1568 1569 1569 1569 1569 1569 1569 1570 1570 1570 1571 1572 1572 1573 1574 1574 1574 1575 1575 1575 1576 1576 1577 1577 1577 1578 1579 1579 1580 1580 1580 1580 1580 1580 1579 1578 1578 1578 1578 1578 1579 1579 1579 1579 1580 1580 1580 1580 1580 1580 1580 1580 1580 1580 1580 1580 1580 1581 1581 1582 1582 1582 1582 1582 1582 1582 1582 1582 1582 1582 1583 1583 1583 1583 1583 1584 1584 1584
1564 1564 1565 1566 1566 1567 1567 1567 1568 1568 1568 1568 1569 1569 1569 1570 1570 1570 1571 1572 1572 1573 1573 1574 1574 1574 1575 1575 1575 1576 1576 1577 1578 1579 1579 1579 1579 1579 1579 1579 1579 1579 1578 1578 1578 1578 1578 1578 1578 1579 1579 1579 1579 1579 1579 1580 1580 1580 1580 1580 1580 1580 1580 1580 1580 1580 1580 1580 1580 1580 1581 1581 1581 1580 1581 1581 1581 1581 1581 1581 1581 1581 1581 1582 1582
1562 1563 1563 1564 1565 1565 1566 1566 1567 1567 1567 1568 1568 1569 1569 1569 1569 1570 1570 1571 1572 1572 1572 1573 1573 1573 1574 1574 1575 1575 1576 1576 1577 1578 1579 1579 1579 1579 1579 1579 1579 1578 1578 1578 1578 1578 1578 1577 1577 1578 1578 1578 1578 1578 1579 1579 1579 1579 1579 1579 1579 1579 1579 1579 1579 1579 1579 1579 1579 1579 1579 1579 1579 1579 1579 1579 1579 1579 1579 1579 1579 1579 1579 1580 1580
1560 1561 1562 1563 1563 1564 1564 1565 1566 1566 1566 1567 1567 1568 1568 1568 1568 1569 1569 1570 1571 1571 1572 1572 1572 1573 1573 1573 1574 1575 1575 1576 1576 1577 1577 1578 1578 1578 1578 1578 1578 1578 1577 1577 1577 1577 1577 1577 1577 1577 1577 1577 1577 1577 1577 1577 1578 1578 1578 1578 1578 1578 1578 1577 1577 1577 1577 1577 1577 1577 1577 1577 1577 1577 1577 1577 1577 1577 1577 1577 1577 1577 1577 1578 1578
1558 1559 1560 1561 1562 1562 1563 1564 1565 1565 1565 1566 1566 1566 1567 1567 1568 1569 1569 1570 1570 1571 1571 1571 1572 1572 1573 1573 1574 1574 1574 1575 1575 1576 1576 1577 1577 1578 1578 1578 1578 1577 1576 1576 1576 1576 1576 1576 1576 1576 1576 1576 1575 1575 1576 1576 1576 1576 1576 1576 1576 1576 1576 1576 1576 1576 1576 1576 1576 1576 1576 1576 1576 1576 1576 1576 1576 1576 1576 1576 1575 1575 1575 1576 1576
1556 1557 1558 1559 1560 1561 1562 1562 1563 1563 1564 1565 1565 1565 1566 1566 1567 1569 1569 1569 1570 1570 1571 1571 1572 1572 1573 1573 1574 1574 1574 1574 1574 1575 1576 1576 1577 1577 1577 1577 1577 1577 1577 1576 1576 1576 1576 1576 1575 1575 1574 1574 1574 1574 1574 1575 1575 1575 1576 1575 1575 1575 1575 1575 1574 1574 1574 1574 1574 1574 1574 1574 1574 1574 1574 1574 1574 1574 1574 1574 1574 1574 1573 1573 1573
1555 1555 1556 1558 1559 1560 1561 1561 1562 1562 1563 1564 1564 1564 1565 1566 1567 1568 1569 1569 1569 1570 1570 1570 1571 1572 1573 1573 1574 1574 1574 1574 1574 1574 1575 1576 1576 1576 1577 1576 1577 1577 1577 1576 1576 1576 1575 1575 1575 1574 1574 1573 1573 1573 1573 1573 1573 1574 1574 1574 1574 1574 1574 1573 1573 1573 1572 1572 1572 1572 1573 1573 1573 1573 1573 1573 1572 1572 1572 1572 1572 1572 1572 1572 1571
1552 1554 1555 1556 1557 1559 1560 1560 1561 1561 1562 1563 1563 1563 1564 1565 1566 1567 1567 1568 1569 1569 1569 1570 1571 1572 1573 1573 1573 1574 1574 1574 1574 1574 1574 1574 1575 1575 1576 1576 1576 1576 1576 1576 1575 1575 1575 1574 1574 1574 1573 1573 1573 1573 1572 1572 1572 1572 1572 1572 1572 1572 1572 1572 1572 1571 1571 1571 1570 1570 1571 1571 1571 1571 1571 1571 1571 1570 1570 1570 1570 1570 1570 1570 1569
1551 1551 1552 1554 1555 1557 1558 1559 1559 1560 1561 1562 1562 1563 1563 1565 1565 1565 1566 1567 1568 1568 1569 1569 1570 1571 1572 1572 1573 1573 1574 1574 1574 1574 1574 1574 1574 1575 1575 1575 1576 1576 1576 1575 1575 1574 1574 1574 1574 1573 1573 1573 1573 1572 1572 1572 1572 1571 1571 1571 1571 1571 1571 1570 1570 1569 1569 1569 1568 1568 1569 1569 1569 1569 1569 1569 1569 1569 1568 1568 1568 1568 1568 1567 1567
1548 1549 1550 1551 1553 1555 1556 1557 1558 1559 1560 1561 1561 1562 1563 1563 1564 1564 1565 1566 1566 1567 1567 1568 1569 1569 1570 1571 1571 1572 1572 1573 1573 1573 1573 1573 1573 1574 1574 1574 1574 1575 1575 1575 1574 1573 1573 1573 1573 1573 1573 1572 1572 1572 1572 1572 1571 1571 1571 1570 1570 1570 1569 1569 1568 1568 1567 1567 1566 1566 1566 1566 1567 1567 1567 1567 1567 1567 1567 1566 1566 1566 1566 1565 1565
1545 1547 1548 1549 1551 1553 1554 1555 1556 1558 1559 1560 1560 1561 1561 1562 1563 1563 1564 1564 1565 1565 1566 1567 1567 1568 1568 1569 1570 1570 1571 1571 1572 1572 1572 1571 1572 1572 1572 1573 1573 1573 1573 1573 1573 1572 1572 1572 1572 1572 1571 1571 1571 1571 1571 1571 1571 1570 1570 1569 1569 1568 1568 1567 1567 1566 1566 1565 1565 1565 1564 1564 1564 1564 1564 1564 1565 1565 1565 1565 1564 1564 1563 1563 1563
1543 1545 1546 1547 1549 1551 1552 1553 1555 1556 1558 1559 1559 1559 1560 1561 1561 1562 1562 1563 1563 1564 1564 1565 1565 1566 1566 1567 1568 1568 1569 1570 1570 1571 1570 1570 1570 1570 1571 1571 1572 1572 1572 1571 1571 1571 1571 1571 1570 1570 1570 1570 1570 1570 1569 1569 1569 1569 1568 1568 1567 1567 1566 1565 1565 1564 1564 1563 1563 1563 1562 1562 1562 1562 1562 1562 1562 1562 1562 1562 1562 1562 1561 1561 1560
1541 1543 1544 1545 1548 1549 1550 1552 1553 1554 1556 1557 1558 1558 1558 1559 1559 1560 1560 1561 1562 1562 1563 1563 1563 1564 1565 1565 1566 1566 1567 1568 1568 1569 1569 1569 1569 1569 1570 1570 1570 1570 1569 1569 1569 1569 1569 1569 1569 1568 1568 1568 1568 1568 1568 1567 1567 1567 1566 1565 1565 1564 1563 1563 1562 1562 1561 1561 1561 1560 1560 1560 1560 1560 1559 1559 1559 1559 1559 1559 1559 1559 1559 1559 1558
1539 1541 1542 1543 1546 1547 1548 1550 1551 1552 1554 1555 1555 1556 1556 1556 1557 1558 1558 1559 1560 1561 1561 1561 1562 1563 1563 1564 1565 1565 1565 1565 1566 1567 1567 1567 1568 1568 1568 1568 1568 1568 1567 1567 1567 1567 1568 1568 1567 1567 1567 1567 1566 1566 1566 1566 1565 1564 1564 1563 1562 1562 1561 1560 1560 1559 1559 1558 1558 1558 1557 1557 1557 1557 1557 1557 1557 1556 1556 1556 1556 1556 1556 1556 1556
1537 1539 1540 1541 1543 1545 1546 1547 1549 1550 1551 1553 1553 1554 1554 1554 1555 1555 1556 1557 1558 1559 1559 1560 1560 1561 1561 1562 1563 1563 1563 1564 1564 1565 1565 1566 1566 1566 1566 1566 1566 1566 1566 1566 1566 1566 1566 1566 1566 1566 1566 1565 1565 1565 1565 1564 1563 1563 1562 1561 1560 1560 1559 1558 1557 1557 1557 1556 1555 1555 1554 1554 1554 1553 1553 1554 1554 1554 1554 1553 1553 1553 1553 1553 1553
1535 1537 1538 1538 1540 1541 1543 1544 1546 1547 1548 1550 1550 1551 1551 1552 1553 1553 1554 1555 1556 1556 1557 1558 1559 1559 1559 1560 1561 1561 1562 1562 1562 1563 1563 1564 1565 1565 1565 1565 1565 1565 1565 1565 1564 1564 1565 1565 1565 1565 1565 1564 1564 1564 1563 1562 1562 1561 1560 1559 1558 1557 1556 1555 1555 1555 1554 1553 1553 1552 1552 1551 1551 1551 1550 1550 1550 1550 1550 1550 1550 1550 1550 1549 1549
1532 1534 1535 1536 1537 1538 1540 1541 1542 1543 1545 1546 1547 1548 1549 1550 1550 1551 1552 1553 1553 1554 1555 1556 1557 1557 1558 1558 1559 1559 1560 1560 1561 1561 1561 1562 1562 1563 1563 1564 1564 1564 1564 1563 1563 1563 1564 1564 1563 1563 1563 1563 1563 1562 1562 1561 1560 1560 1559 1557 1556 1555 1553 1552 1552 1551 1551 1551 1550 1550 1549 1549 1549 1548 1548 1547 1547 1547 1547 1547 1547 1547 1547 1546 1546
1529 1530 1532 1533 1534 1535 1536 1537 1539 1540 1542 1543 1544 1545 1546 1547 1548 1549 1550 1551 1551 1552 1553 1554 1555 1555 1556 1556 1557 1557 1558 1558 1559 1560 1560 1560 1560 1561 1561 1561 1562 1562 1562 1562 1561 1561 1561 1562 1562 1561 1562 1561 1561 1560 1560 1559 1558 1557 1556 1555 1554 1552 1551 1550 1549 1549 1549 1548 1548 1547 1547 1546 1546 1546 1545 1545 1544 1544 1544 1543 1543 1544 1544 1544 1543
1525 1527 1528 1529 1531 1532 1533 1534 1535 1536 1538 1540 1541 1542 1543 1544 1545 1546 1547 1548 1548 1549 1550 1551 1552 1553 1553 1554 1554 1555 1556 1556 1557 1558 1558 1559 1558 1559 1559 1559 1560 1560 1560 1560 1559 1559 1559 1560 1560 1559 1559 1559 1558 1558 1557 1556 1555 1554 1553 1553 1552 1551 1550 1549 1547 1546 1546 1546 1545 1545 1544 1544 1543 1543 1542 1541 1541 1541 1541 1540 1540 1541 1541 1540 1540
1522 1523 1525 1526 1527 1528 1529 1530 1531 1533 1534 1536 1538 1539 1540 1541 1542 1543 1544 1545 1545 1546 1547 1548 1549 1550 1550 1551 1552 1553 1554 1554 1555 1556 1556 1557 1557 1557 1557 1557 1557 1558 1558 1558 1558 1557 1557 1557 1557 1557 1557 1556 1556 1555 1554 1553 1552 1552 1551 1550 1550 1549 1547 1546 1545 1544 1543 1543 1543 1542 1542 1541 1541 1540 1540 1539 1539 1538 1538 1538 1538 1537 1537 1537 1537
1519 1520 1521 1523 1524 1525 1526 1527 1528 1529 1530 1532 1534 1535 1536 1538 1539 1540 1541 1542 1543 1543 1544 1545 1546 1547 1548 1549 1550 1551 1551 1552 1553 1553 1554 1555 1555 1555 1555 1556 1556 1556 1557 1557 1556 1556 1555 1555 1554 1554 1554 1554 1553 1553 1552 1551 1550 1549 1548 1548 1547 1546 1545 1544 1543 1542 1541 1541 1540 1539 1539 1538 1538 1538 1537 1537 1537 1536 1536 1535 1535 1534 1534 1533 1533
1515 1517 1518 1519 1520 1521 1522 1523 1524 1525 1527 1528 1530 1532 1533 1535 1536 1537 1538 1539 1540 1541 1542 1543 1544 1545 1545 1546 1547 1548 1549 1549 1550 1551 1552 1553 1554 1554 1554 1554 1554 1555 1555 1555 1555 1555 1554 1553 1552 1552 1551 1551 1550 1550 1549 1548 1547 1546 1545 1544 1543 1543 1542 1542 1541 1540 1539 1538 1538 1537 1536 1536 1535 1535 1535 1534 1534 1534 1533 1532 1532 1531 1530 1529 1529
1512 1513 1514 1515 1516 1517 1518 1520 1521 1522 1524 1525 1526 1528 1531 1532 1533 1535 1536 1537 1538 1539 1540 1541 1542 1543 1543 1544 1545 1546 1547 1547 1549 1550 1550 1551 1552 1552 1553 1552 1553 1553 1553 1553 1554 1553 1552 1551 1550 1550 1549 1548 1547 1546 1546 1545 1543 1542 1541 1540 1540 1540 1539 1539 1538 1538 1537 1536 1536 1535 1534 1533 1533 1532 1532 1531 1531 1530 1530 1529 1528 1528 1527 1526 1525
1508 1510 1511 1512 1513 1514 1515 1517 1519 1520 1521 1523 1524 1526 1528 1530 1531 1532 1534 1535 1535 1536 1537 1539 1540 1541 1541 1542 1543 1544 1545 1546 1547 1548 1548 1549 1550 1551 1551 1551 1551 1551 1551 1551 1551 1551 1550 1549 1548 1547 1546 1546 1544 1543 1543 1542 1541 1539 1539 1537 1536 1537 1537 1536 1535 1535 1534 1534 1533 1532 1532 1531 1531 1530 1529 1528 1528 1527 1526 1525 1524 1523 1522 1521 1521
1505 1506 1507 1509 1510 1511 1513 1515 1516 1518 1519 1520 1521 1523 1526 1528 1529 1530 1531 1532 1532 1533 1535 1537 1538 1538 1539 1540 1541 1542 1543 1544 1545 1545 1546 1546 1547 1547 1548 1549 1549 1549 1549 1549 1549 1549 1548 1548 1547 1546 1544 1543 1541 1541 1540 1539 1538 1537 1536 1535 1534 1533 1533 1533 1532 1532 1531 1530 1530 1529 1529 1528 1527 1527 1526 1525 1524 1523 1522 1521 1520 1519 1518 1517 1516
1501 1503 1504 1506 1508 1509 1510 1512 1514 1515 1516 1517 1517 1520 1524 1525 1526 1527 1529 1529 1530 1531 1532 1533 1535 1536 1537 1538 1538 1540 1541 1542 1543 1543 1543 1544 1544 1545 1545 1546 1546 1546 1546 1547 1547 1546 1546 1546 1545 1544 1542 1540 1539 1538 1537 1537 1536 1535 1534 1533 1532 1531 1531 1530 1529 1529 1528 1527 1526 1525 1525 1524 1523 1522 1521 1520 1519 1518 1517 1516 1515 1514 1513 1512 1511
1499 1500 1502 1504 1505 1506 1507 1509 1511 1512 1512 1513 1515 1518 1521 1522 1522 1524 1525 1526 1527 1528 1529 1530 1531 1533 1534 1535 1536 1537 1539 1539 1540 1541 1542 1542 1543 1543 1544 1544 1545 1545 1544 1544 1544 1544 1544 1543 1542 1541 1540 1538 1537 1536 1535 1534 1534 1532 1531 1531 1530 1529 1529 1527 1527 1527 1526 1524 1522 1521 1521 1521 1519 1517 1516 1516 1514 1514 1512 1511 1510 1509 1508 1508 1507
1496 1498 1499 1500 1501 1503 1505 1506 1507 1508 1509 1510 1512 1515 1517 1518 1519 1520 1522 1523 1524 1525 1526 1527 1528 1530 1531 1532 1533 1535 1536 1537 1538 1539 1540 1541 1541 1541 1542 1542 1543 1543 1542 1542 1542 1541 1541 1540 1539 1539 1537 1535 1534 1533 1532 1531 1531 1530 1529 1529 1528 1527 1527 1525 1524 1523 1523 1522 1519 1516 1516 1517 1515 1513 1512 1511 1510 1509 1508 1507 1506 1506 1505 1504 1504
1492 1494 1496 1497 1499 1501 1502 1503 1505 1505 1506 1507 1509 1512 1514 1515 1516 1517 1519 1521 1521 1522 1523 1525 1526 1528 1529 1530 1531 1532 1534 1535 1536 1537 1538 1538 1538 1539 1540 1540 1540 1540 1540 1540 1540 1539 1538 1537 1536 1535 1534 1533 1531 1531 1530 1529 1528 1527 1527 1526 1526 1525 1524 1523 1521 1520 1519 1518 1515 1512 1511 1512 1511 1508 1507 1507 1506 1504 1504 1503 1502 1502 1501 1501 1500
1490 1491 1493 1495 1496 1498 1499 1501 1502 1502 1503 1504 1506 1509 1511 1512 1513 1514 1516 1518 1519 1520 1521 1522 1524 1526 1527 1529 1530 1531 1532 1533 1534 1534 1535 1535 1535 1536 1537 1537 1538 1538 1538 1538 1537 1537 1536 1534 1533 1532 1531 1530 1529 1528 1528 1527 1525 1525 1524 1523 1523 1522 1521 1520 1518 1516 1516 1515 1512 1508 1506 1507 1507 1505 1503 1502 1502 1501 1500 1499 1498 1498 1497 1497 1496
1487 1489 1491 1493 1494 1495 1496 1497 1498 1499 1499 1501 1504 1507 1508 1509 1510 1511 1513 1515 1517 1518 1519 1521 1523 1524 1525 1527 1528 1528 1530 1531 1531 1531 1532 1532 1533 1533 1534 1535 1535 1536 1536 1535 1535 1534 1533 1531 1530 1529 1528 1528 1526 1525 1525 1524 1523 1522 1522 1521 1520 1519 1517 1516 1515 1513 1513 1512 1510 1506 1503 1503 1503 1501 1498 1498 1498 1497 1496 1495 1495 1494 1493 1493 1492
1485 1487 1489 1490 1491 1492 1493 1494 1495 1496 1497 1499 1501 1504 1505 1507 1508 1508 1510 1512 1514 1515 1517 1518 1520 1522 1523 1525 1525 1526 1527 1527 1528 1528 1529 1529 1530 1530 1531 1532 1532 1533 1533 1532 1532 1530 1529 1528 1527 1525 1525 1524 1523 1522 1522 1522 1520 1520 1519 1518 1517 1516 1514 1513 1511 1510 1510 1509 1508 1504 1500 1498 1499 1498 1495 1495 1494 1493 1493 1492 1491 1490 1489 1488 1487
1482 1484 1486 1487 1489 1490 1491 1491 1492 1493 1494 1496 1499 1501 1502 1504 1505 1506 1507 1509 1511 1512 1514 1515 1517 1519 1521 1522 1523 1523 1523 1523 1524 1525 1526 1526 1527 1527 1528 1529 1529 1529 1529 1529 1528 1527 1526 1525 1523 1522 1522 1521 1520 1520 1519 1519 1518 1517 1516 1515 1514 1513 1511 1510 1508 1507 1506 1506 1505 1503 1498 1496 1496 1495 1492 1491 1491 1489 1488 1488 1487 1486 1485 1483 1482
1479 1481 1483 1484 1486 1487 1488 1489 1490 1491 1492 1494 1496 1498 1500 1502 1503 1504 1505 1507 1508 1510 1512 1513 1514 1516 1517 1519 1519 1520 1520 1520 1521 1523 1524 1524 1524 1525 1525 1526 1526 1526 1526 1526 1525 1524 1523 1522 1520 1519 1519 1518 1518 1517 1517 1516 1516 1515 1514 1512 1511 1511 1509 1507 1505 1504 1503 1502 1502 1501 1497 1494 1493 1492 1488 1487 1487 1485 1484 1483 1482 1481 1480 1478 1477
1475 1477 1479 1481 1483 1484 1486 1487 1488 1489 1490 1492 1493 1495 1497 1499 1501 1501 1503 1504 1505 1507 1509 1511 1512 1513 1515 1516 1517 1517 1517 1518 1519 1521 1522 1522 1522 1522 1522 1523 1522 1522 1522 1522 1521 1520 1519 1519 1518 1517 1516 1516 1515 1515 1514 1514 1513 1513 1511 1509 1509 1508 1506 1504 1503 1501 1500 1499 1499 1498 1495 1492 1491 1489 1485 1482 1481 1480 1479 1478 1477 1476 1475 1474 1473
1471 1473 1475 1477 1479 1481 1483 1484 1485 1487 1488 1490 1491 1492 1494 1496 1497 1499 1500 1502 1503 1504 1506 1508 1509 1511 1513 1514 1515 1515 1515 1516 1518 1519 1519 1519 1519 1519 1520 1519 1519 1518 1518 1518 1517 1516 1516 1516 1515 1515 1514 1514 1513 1512 1512 1511 1510 1510 1509 1507 1507 1505 1503 1502 1501 1499 1497 1496 1496 1495 1493 1490 1488 1486 1484 1480 1475 1473 1473 1473 1473 1472 1471 1469 1468